[[{"header":{"parameterUnit":"m.s-1","parameterCategory":2,"la1":30.2991,"la2":30.254,"lo1":-89.0895,"lo2":-89.0444,"dy":0.0017,"dx":0.0017,"nx":28,"ny":28,"refTime":"2025-05-26T03:00:00:Z","depth":"0","parameterNumber":2,"parameterNumberName":"U-component_of_CURRENTS"},"data":[0,0,0,0,0,0,0,0,0,0,0,0,0,0,0,0,0,0,0,0,0,0,0,0,0,0,0,0,0,0,0,0,0,0,0,0,0,0,0,0,0,0,0,0,0,0,0,0,0,0,0,0,0,0,0,0,0,0,0.3874,0.3875,0,0.3958,0.3959,0.396,0.3956,0.3955,0.3954,0.3954,0.3914,0.3914,0.3913,0,0,0,0,0,0,0,0,0,0,0,0,0,0.3735,0.3738,0.3874,0.3875,0.3877,0.3958,0.3959,0.396,0.3956,0.3955,0.3954,0.3953,0.3914,0.3914,0.3913,0,0,0,0,0,0,0,0,0,0,0,0,0,0.3802,0.3738,0.3874,0.3888,0.389,0.3958,0.3959,0.396,0.3956,0.3955,0.3954,0.3953,0.3914,0.3914,0.3913,0.3936,0,0,0.3912,0.3912,0,0,0,0,0,0,0,0,0.3798,0.3806,0.3884,0.3887,0.389,0.3949,0.3896,0.3947,0.3957,0.3927,0.3954,0.3952,0.3918,0.3917,0.3932,0.3935,0.3933,0.3912,0.3912,0.3912,0.3912,0,0,0,0,0,0,0,0.3793,0.3803,0.3904,0.3886,0.3889,0.3899,0.3906,0.3906,0.3923,0.393,0.3931,0.3946,0.3917,0.3932,0.3931,0.3932,0.3912,0.3912,0.3912,0.3911,0.4013,0.4016,0,0,0,0,0,0,0.3791,0.3799,0.3901,0.3907,0.3844,0.3902,0.391,0.3928,0.3926,0.3927,0.3947,0.3946,0.3934,0.3931,0.3929,0.4012,0.3912,0.3911,0.3911,0.401,0.4014,0.4017,0,0,0,0,0,0,0.3788,0.3799,0.3898,0.3857,0.3871,0.3906,0.3926,0.393,0.3948,0.3942,0.3939,0.3961,0.3933,0.393,0.3938,0.4008,0.3911,0.3911,0.4007,0.4011,0.4015,0.4142,0,0,0,0,0,0,0.3783,0.3798,0.3809,0.3857,0.3873,0.3944,0.3928,0.3933,0.3961,0.396,0.3952,0.3947,0.3931,0.3939,0.3938,0.4006,0.3911,0.4003,0.4009,0.4014,0.4134,0.415,0.4164,0,0,0,0,0,0.3778,0.3797,0.3809,0.3822,0.3888,0.3946,0.3954,0.3972,0.3963,0.398,0.3974,0.3947,0.3974,0.394,0.3939,0.4008,0.4,0.4007,0.4014,0.4127,0.4147,0.4163,0,0,0,0,0,0,0.3736,0.3801,0.3814,0.385,0.3899,0.3946,0.3965,0.398,0.3993,0.3985,0.3967,0.3963,0.4011,0.3985,0.3948,0.4056,0.3991,0.3997,0.4078,0.4096,0.4111,0.4155,0.391,0,0,0,0,0,0.3737,0.3769,0.3831,0.3859,0.3885,0.3927,0.3951,0.3971,0.3992,0.3997,0.3998,0.4005,0.4041,0.4043,0.406,0.4098,0.413,0.4148,0.4163,0.4175,0.4212,0.4336,0.4366,0.4039,0.4039,0.4039,0,0,0.3726,0.3767,0.3783,0.3853,0.3887,0.3948,0.3937,0.3982,0.4039,0.3989,0.4045,0.4054,0.4064,0.4125,0.4144,0.4105,0.4281,0.4184,0.4195,0.4225,0.4346,0.4378,0.4407,0.4043,0.4042,0.4042,0,0,0.3733,0.3761,0.3799,0.3849,0.3917,0.3956,0.3972,0.4033,0.4062,0.4114,0.4118,0.4172,0.4184,0.4238,0.4259,0.4365,0.4362,0.4362,0.4467,0.4586,0.4615,0.464,0.4704,0.4735,0.4363,0.4363,0.4363,0,0.3716,0.3785,0.3817,0.3877,0.3933,0.3964,0.4034,0.4077,0.4133,0.4187,0.414,0.4265,0.4258,0.4391,0.443,0.4405,0.4448,0.4394,0.4609,0.4635,0.4659,0.4718,0.475,0.437,0.4369,0.4369,0.4368,0,0.3767,0.3829,0.3856,0.3951,0.4008,0.4069,0.4147,0.4205,0.4236,0.4295,0.4417,0.4429,0.4514,0.4526,0.4504,0.4687,0.4653,0.4619,0.4566,0.47,0.4752,0.4784,0.438,0.4377,0.4375,0.4374,0,0,0.3724,0.3865,0.3876,0.3954,0.406,0.4122,0.4223,0.4353,0.4451,0.45,0.4642,0.4713,0.4737,0.4766,0.4768,0.4861,0.5049,0.4815,0.4818,0.4883,0.5291,0.5192,0.5215,0.5057,0.5063,0.5068,0.5252,0,0.3763,0.3892,0.3953,0.4091,0.4181,0.4259,0.4362,0.4478,0.4564,0.47,0.4771,0.4888,0.4824,0.488,0.4973,0.5048,0.5141,0.5001,0.5148,0.5152,0.5053,0.5252,0.5036,0.5177,0.5282,0.5287,0.5291,0,0.3818,0.3902,0.4039,0.4216,0.4259,0.4338,0.4536,0.4633,0.482,0.4889,0.5023,0.5077,0.5248,0.5153,0.5368,0.5283,0.531,0.5339,0.5347,0.524,0.5114,0.5064,0.5229,0.5047,0.5338,0.5334,0.5331,0,0.3827,0.3981,0.4097,0.4153,0.4335,0.4418,0.4514,0.4695,0.4795,0.5028,0.5118,0.5315,0.5393,0.552,0.5557,0.5499,0.5761,0.5683,0.5617,0.5607,0.5448,0.5413,0.5462,0.5849,0.5849,0.5849,0.5848,0,0.3893,0.3996,0.4108,0.4181,0.4331,0.4443,0.4605,0.4745,0.4917,0.5056,0.5209,0.5338,0.549,0.5625,0.567,0.575,0.5858,0.5701,0.5687,0.5479,0.5447,0.5295,0.5228,0.5855,0.5854,0.5852,0.5851,0,0.395,0.4014,0.4159,0.4307,0.4352,0.4468,0.4621,0.4736,0.4899,0.5087,0.5166,0.5392,0.5595,0.571,0.5905,0.5856,0.5806,0.5946,0.5662,0.5612,0.5364,0.5311,0.5249,0.5094,0.5953,0.5952,0.5952,0,0.4013,0.4083,0.4217,0.4277,0.4351,0.4483,0.4569,0.4728,0.4826,0.5104,0.5192,0.5439,0.5581,0.5824,0.5856,0.5964,0.5776,0.5768,0.5629,0.5385,0.5318,0.5124,0.4983,0.5458,0.5454,0.545,0.5447,0,0.4118,0.414,0.4235,0.4325,0.4412,0.4491,0.4605,0.4653,0.484,0.4978,0.5152,0.5296,0.5541,0.557,0.5699,0.5727,0.5493,0.5691,0.5542,0.5053,0.4748,0.4575,0.5263,0.5413,0.5416,0.5419,0.5421,0.5422,0.4161,0.4221,0.4277,0.4371,0.4442,0.4446,0.4443,0.4531,0.4618,0.474,0.4981,0.5086,0.5258,0.5429,0.5433,0.5248,0.5261,0.5074,0.5068,0.4921,0.4661,0.5255,0.5314,0.5317,0.5319,0.5321,0.5323,0,0.4162,0.4208,0.4304,0.4338,0.4344,0.4397,0.4423,0.4353,0.4346,0.453,0.4631,0.4725,0.4784,0.4886,0.4831,0.4641,0.4436,0.4504,0.4185,0.4106,0.4737,0.4599,0.4377,0.4377,0.4377,0.4377,0.4377,0.4378,0.4151,0.4198,0.4229,0.4202,0.4208,0.41,0.4059,0.3984,0.4024,0.3984,0.3999,0.4124,0.4362,0.4464,0.4285,0.4179,0.3843,0.3687,0.3683,0.4117,0.4167,0.4215,0.4068,0.3738,0.3738,0.2851,0.2845,0.284]},{"header":{"parameterUnit":"m.s-1","parameterCategory":2,"la1":30.2991,"la2":30.254,"lo1":-89.0895,"lo2":-89.0444,"dy":0.0017,"dx":0.0017,"nx":28,"ny":28,"refTime":"2025-05-26T03:00:00:Z","depth":"0","parameterNumber":3,"parameterNumberName":"V-component_of_CURRENTS"},"data":[0,0,0,0,0,0,0,0,0,0,0,0,0,0,0,0,0,0,0,0,0,0,0,0,0,0,0,0,0,0,0,0,0,0,0,0,0,0,0,0,0,0,0,0,0,0,0,0,0,0,0,0,0,0,0,0,0,0,0.001,0.001,0,-0.004,-0.004,-0.0041,-0.0082,-0.0082,-0.0083,-0.0083,-0.0125,-0.0125,-0.0126,0,0,0,0,0,0,0,0,0,0,0,0,0,0.0049,0.0048,0.0011,0.001,0.0009,-0.004,-0.004,-0.0041,-0.0082,-0.0082,-0.0083,-0.0083,-0.0124,-0.0125,-0.0126,0,0,0,0,0,0,0,0,0,0,0,0,0,0.0019,0.0048,0.0011,-0.0017,-0.002,-0.0039,-0.004,-0.0041,-0.0082,-0.0082,-0.0083,-0.0084,-0.0124,-0.0125,-0.0126,-0.012,0,0,-0.0129,-0.013,0,0,0,0,0,0,0,0,0.002,0.0017,-0.0012,-0.0015,-0.0018,-0.0055,-0.0042,-0.0067,-0.0082,-0.0058,-0.0083,-0.0084,-0.01,-0.0103,-0.0111,-0.0122,-0.0124,-0.0129,-0.013,-0.0131,-0.0131,0,0,0,0,0,0,0,0.0023,0.0019,-0.0009,-0.0013,-0.0017,-0.0034,-0.0039,-0.0047,-0.0075,-0.006,-0.0064,-0.0069,-0.0102,-0.011,-0.0113,-0.0124,-0.0129,-0.013,-0.0131,-0.0131,-0.0104,-0.0103,0,0,0,0,0,0,0.0031,0.0021,-0.0008,-0.0011,-0.0,-0.0034,-0.004,-0.0043,-0.0075,-0.0081,-0.0068,-0.0071,-0.0108,-0.0111,-0.0114,-0.0061,-0.0131,-0.0132,-0.0132,-0.0105,-0.0104,-0.0102,0,0,0,0,0,0,0.0032,0.0029,-0.0006,0.0004,-0.0002,-0.0034,-0.0037,-0.0043,-0.0053,-0.0081,-0.0087,-0.0071,-0.0109,-0.0113,-0.0112,-0.0065,-0.0132,-0.0133,-0.0107,-0.0105,-0.0103,0.0015,0,0,0,0,0,0,0.0033,0.003,0.0032,0.0005,-0.0002,-0.0001,-0.0037,-0.0044,-0.0055,-0.0058,-0.0085,-0.009,-0.011,-0.011,-0.0113,-0.0067,-0.0134,-0.0109,-0.0106,-0.0104,0.001,0.0021,0.0031,0,0,0,0,0,0.0035,0.0053,0.0032,0.0029,0.0002,0.0,-0.0004,-0.003,-0.0054,-0.0044,-0.0067,-0.0089,-0.0096,-0.011,-0.0114,-0.0067,-0.011,-0.0107,-0.0104,0.0005,0.0019,0.0031,0,0,0,0,0,0,0.0079,0.0049,0.0026,0.0035,0.0022,-0.0006,-0.0001,-0.0025,-0.0038,-0.0043,-0.0077,-0.0082,-0.0063,-0.0087,-0.0102,-0.0054,-0.0104,-0.0102,-0.002,-0.0007,0.0003,0.0064,-0.0135,0,0,0,0,0,0.0087,0.0087,0.0058,0.0066,0.0061,0.0027,0.0021,0.0003,-0.0013,-0.0021,-0.0041,-0.0057,-0.0052,-0.0049,-0.0058,-0.0033,-0.005,-0.0005,0.0005,0.0015,0.0061,0.007,0.0087,-0.0092,-0.0092,-0.0092,0,0,0.0106,0.0089,0.0089,0.0074,0.0058,0.0085,0.0023,0.0023,0.0053,-0.0021,0.0008,-0.0025,-0.0041,-0.001,-0.0002,-0.0023,0.0049,0.0019,0.0027,0.0069,0.0076,0.0093,0.0109,-0.009,-0.0091,-0.0091,0,0,0.0167,0.0129,0.0161,0.0155,0.0139,0.0123,0.0126,0.01,0.0095,0.0105,0.0072,0.0076,0.0058,0.0078,0.0082,0.0147,0.0099,0.0128,0.0242,0.025,0.0266,0.028,0.025,0.026,0.0141,0.0141,0.0141,0,0.0195,0.023,0.0172,0.0208,0.0224,0.0149,0.0207,0.0192,0.0171,0.0196,0.0131,0.0152,0.0117,0.0202,0.0216,0.0179,0.0153,0.0196,0.0267,0.0281,0.0293,0.0259,0.0269,0.0147,0.0146,0.0146,0.0145,0,0.0286,0.0316,0.0336,0.0358,0.0363,0.0395,0.037,0.0378,0.0344,0.0337,0.038,0.0327,0.0355,0.033,0.029,0.0375,0.0316,0.0273,0.0241,0.0319,0.0276,0.0285,0.0156,0.0153,0.0152,0.015,0,0,0.0364,0.0398,0.0408,0.0459,0.045,0.0476,0.052,0.0565,0.0625,0.0571,0.0664,0.0632,0.0593,0.0597,0.0544,0.0541,0.0569,0.0449,0.0446,0.0432,0.0558,0.0504,0.0506,0.053,0.0533,0.0535,0.0483,0,0.0467,0.0577,0.056,0.0677,0.0739,0.0699,0.0755,0.0775,0.0768,0.0827,0.0782,0.0831,0.0699,0.0719,0.0696,0.0622,0.0601,0.0586,0.0477,0.0475,0.0428,0.0519,0.0472,0.0422,0.0491,0.0492,0.0493,0,0.0582,0.0642,0.0768,0.0865,0.0888,0.0938,0.103,0.1071,0.1114,0.1112,0.1136,0.109,0.1113,0.0966,0.0884,0.0875,0.0737,0.0644,0.0639,0.0568,0.0439,0.0361,0.0434,0.0178,0.0505,0.0504,0.0503,0,0.0693,0.0803,0.0913,0.0939,0.1015,0.1078,0.1123,0.1169,0.1236,0.1312,0.1374,0.1352,0.1363,0.1223,0.1014,0.0958,0.0894,0.0791,0.0607,0.0599,0.0534,0.0517,0.0369,0.073,0.073,0.073,0.073,0,0.0827,0.0922,0.0976,0.1038,0.1187,0.1195,0.1342,0.1385,0.1466,0.1593,0.1536,0.1637,0.1425,0.135,0.1124,0.0913,0.0978,0.0669,0.061,0.0567,0.0554,0.0307,0.0169,0.0728,0.0728,0.0729,0.0729,0,0.0937,0.097,0.1107,0.1204,0.1243,0.1349,0.1471,0.1579,0.1639,0.181,0.1855,0.1862,0.1788,0.1546,0.1327,0.1069,0.0716,0.0756,0.0704,0.0641,0.022,0.0091,-0.0077,-0.017,0.0564,0.0562,0.0561,0,0.1015,0.1085,0.1212,0.1302,0.1353,0.1488,0.1587,0.1662,0.1775,0.1964,0.2071,0.2069,0.2101,0.1759,0.1333,0.0958,0.0701,0.062,0.0511,0.0235,0.0047,-0.0046,-0.0119,0.0444,0.0442,0.044,0.0439,0,0.1156,0.1175,0.1273,0.1435,0.1562,0.1696,0.1841,0.1949,0.2069,0.2229,0.2423,0.2482,0.2186,0.182,0.1291,0.1,0.0442,0.0574,0.0319,-0.0007,-0.0143,-0.0275,0.0404,0.0425,0.0426,0.0427,0.0428,0.0429,0.1244,0.1328,0.1431,0.1587,0.1726,0.1881,0.2007,0.217,0.237,0.2619,0.2657,0.2772,0.2205,0.151,0.1117,0.0295,0.0337,0.0012,-0.0109,-0.0168,-0.0281,0.0361,0.0298,0.0299,0.0299,0.03,0.03,0,0.1343,0.1427,0.1583,0.1751,0.1893,0.1944,0.216,0.2293,0.254,0.2778,0.2942,0.267,0.1997,0.1288,0.021,-0.0311,-0.049,-0.0597,-0.0755,-0.0785,-0.0196,-0.0225,-0.044,-0.0439,-0.0439,-0.0439,-0.0439,-0.0438,0.1404,0.1542,0.1606,0.1848,0.1962,0.2148,0.2269,0.25,0.2686,0.2917,0.2948,0.2944,0.2296,0.0515,-0.0681,-0.0937,-0.1278,-0.1371,-0.1489,-0.1139,-0.1092,-0.1047,-0.1108,-0.1503,-0.1505,-0.2032,-0.2038,-0.2043]}],[{"header":{"parameterUnit":"m.s-1","parameterCategory":2,"la1":30.2991,"la2":30.254,"lo1":-89.0895,"lo2":-89.0444,"dy":0.0017,"dx":0.0017,"nx":28,"ny":28,"refTime":"2025-05-26T03:00:00:Z","depth":"2","parameterNumber":2,"parameterNumberName":"U-component_of_CURRENTS"},"data":[0,0,0,0,0,0,0,0,0,0,0,0,0,0,0,0,0,0,0,0,0,0,0,0,0,0,0,0,0,0,0,0,0,0,0,0,0,0,0,0,0,0,0,0,0,0,0,0,0,0,0,0,0,0,0,0,0,0,0.3038,0.3038,0,0.3071,0.3071,0.3072,0.3079,0.3079,0.3079,0.3078,0.3114,0.3115,0.3116,0,0,0,0,0,0,0,0,0,0,0,0,0,0.2948,0.295,0.3038,0.3038,0.3039,0.3071,0.3072,0.3072,0.3079,0.3079,0.3079,0.3078,0.3113,0.3115,0.3116,0,0,0,0,0,0,0,0,0,0,0,0,0,0.2985,0.2951,0.3038,0.3046,0.3047,0.3071,0.3072,0.3072,0.3079,0.3079,0.3078,0.3078,0.3113,0.3115,0.3116,0.3134,0,0,0.3122,0.3122,0,0,0,0,0,0,0,0,0.2983,0.2988,0.3045,0.3046,0.3047,0.3071,0.3053,0.3093,0.3079,0.3067,0.3078,0.3078,0.31,0.3103,0.3109,0.3135,0.3137,0.3122,0.3123,0.3123,0.3124,0,0,0,0,0,0,0,0.298,0.2987,0.3051,0.3045,0.3047,0.3038,0.3043,0.306,0.3085,0.3068,0.3068,0.3073,0.3101,0.3108,0.311,0.3137,0.3122,0.3123,0.3124,0.3125,0.3267,0.3269,0,0,0,0,0,0,0.2979,0.2985,0.305,0.3052,0.3014,0.304,0.3045,0.3063,0.3084,0.3087,0.3073,0.3073,0.3105,0.3108,0.3112,0.3207,0.3123,0.3125,0.3126,0.3264,0.3267,0.327,0,0,0,0,0,0,0.2977,0.2985,0.3048,0.3018,0.3025,0.3042,0.3062,0.3064,0.3088,0.3088,0.3091,0.3096,0.3105,0.3109,0.3143,0.3206,0.3126,0.3127,0.3261,0.3265,0.3269,0.3351,0,0,0,0,0,0,0.2975,0.2985,0.2998,0.3019,0.3027,0.3084,0.3062,0.3065,0.309,0.309,0.3109,0.311,0.3105,0.314,0.3144,0.3206,0.3129,0.3257,0.3263,0.3267,0.3345,0.3357,0.3368,0,0,0,0,0,0.2972,0.2988,0.2999,0.3006,0.3045,0.3086,0.3091,0.3099,0.3091,0.3116,0.312,0.3111,0.3177,0.3143,0.3147,0.3212,0.3255,0.3261,0.3267,0.3339,0.3355,0.3368,0,0,0,0,0,0,0.2952,0.2992,0.3003,0.303,0.3067,0.3088,0.3107,0.3113,0.3135,0.3139,0.313,0.3133,0.3208,0.3189,0.3152,0.3271,0.3221,0.3229,0.3275,0.329,0.3301,0.3312,0.313,0,0,0,0,0,0.2957,0.2989,0.3022,0.3051,0.307,0.3094,0.311,0.3125,0.3145,0.3156,0.3167,0.3188,0.3235,0.3241,0.3283,0.3319,0.3345,0.337,0.3382,0.3392,0.3407,0.3523,0.3547,0.329,0.329,0.329,0,0,0.2958,0.2985,0.3003,0.3051,0.3079,0.3117,0.3104,0.3148,0.3185,0.3156,0.3209,0.3243,0.3262,0.3327,0.3356,0.3312,0.3474,0.3399,0.3407,0.3417,0.3532,0.3557,0.3579,0.3295,0.3294,0.3293,0,0,0.2979,0.3007,0.3039,0.3078,0.3129,0.3147,0.3165,0.3206,0.3231,0.3281,0.3294,0.3348,0.3389,0.3423,0.3441,0.3536,0.3554,0.3563,0.3605,0.3718,0.374,0.376,0.3802,0.3825,0.3542,0.3543,0.3543,0,0.2975,0.3024,0.3056,0.3101,0.3136,0.3164,0.3211,0.3243,0.329,0.3333,0.3311,0.344,0.3439,0.3541,0.3566,0.3565,0.3615,0.3545,0.3734,0.3755,0.3774,0.3812,0.3836,0.3547,0.3547,0.3546,0.3546,0,0.3023,0.3065,0.3093,0.3159,0.3204,0.3253,0.3304,0.3358,0.3386,0.3424,0.3546,0.3562,0.3635,0.3653,0.3626,0.3773,0.376,0.3758,0.3697,0.3805,0.3837,0.3861,0.3554,0.3552,0.3551,0.355,0,0,0.2998,0.3102,0.3111,0.3155,0.3242,0.3281,0.3367,0.3454,0.3521,0.3585,0.3689,0.3755,0.3785,0.3809,0.3816,0.3881,0.4024,0.3868,0.3872,0.3904,0.4251,0.4092,0.4102,0.4076,0.4081,0.4085,0.421,0,0.3023,0.3107,0.3158,0.3243,0.3294,0.3366,0.3442,0.3534,0.3605,0.3712,0.3782,0.3889,0.384,0.3896,0.396,0.4036,0.4097,0.3988,0.4146,0.4149,0.3993,0.4128,0.3823,0.3898,0.4233,0.4237,0.4239,0,0.3046,0.3103,0.3188,0.33,0.333,0.3387,0.353,0.3608,0.3767,0.3839,0.3964,0.4026,0.4151,0.4094,0.4266,0.4212,0.4238,0.4269,0.4275,0.4118,0.4037,0.3851,0.3928,0.4279,0.4276,0.4273,0.427,0,0.3017,0.3119,0.3185,0.3225,0.3355,0.3421,0.3501,0.3653,0.373,0.3947,0.4016,0.4198,0.4294,0.4391,0.4406,0.4385,0.4572,0.455,0.4428,0.4415,0.4177,0.4133,0.4686,0.4685,0.4685,0.4685,0.4685,0,0.3019,0.3067,0.3173,0.3219,0.3296,0.3416,0.3529,0.3644,0.3816,0.3918,0.4075,0.4168,0.4386,0.4482,0.4493,0.4516,0.4647,0.4468,0.4463,0.419,0.4148,0.4493,0.4469,0.4689,0.4688,0.4688,0.4687,0,0.2967,0.3042,0.3124,0.3259,0.3286,0.3357,0.3505,0.358,0.3763,0.3907,0.3987,0.4218,0.4383,0.4493,0.4677,0.4609,0.4654,0.4615,0.4239,0.4186,0.4401,0.4381,0.4552,0.4548,0.4544,0.4542,0.4539,0,0.2991,0.2977,0.3115,0.3133,0.3185,0.3287,0.3339,0.3542,0.3636,0.3888,0.3946,0.4182,0.4279,0.4449,0.4476,0.4514,0.4595,0.4205,0.4104,0.4424,0.4402,0.4386,0.437,0.3816,0.3808,0.3802,0.3796,0,0.2921,0.2928,0.2978,0.3032,0.3081,0.3146,0.326,0.3326,0.3571,0.3678,0.384,0.3942,0.4143,0.4098,0.4162,0.4122,0.4184,0.4069,0.4571,0.3876,0.3736,0.3711,0.372,0.3737,0.3743,0.3748,0.3751,0.3753,0.2831,0.2814,0.2835,0.2869,0.2921,0.2971,0.3013,0.3138,0.3252,0.3395,0.3599,0.3641,0.3767,0.373,0.3635,0.3601,0.3877,0.3718,0.3738,0.3765,0.3636,0.3496,0.3426,0.343,0.3433,0.3436,0.3439,0,0.2663,0.2617,0.264,0.2689,0.2699,0.2816,0.29,0.2893,0.2957,0.3144,0.3239,0.3039,0.303,0.3149,0.3018,0.3017,0.2985,0.2899,0.2845,0.2908,0.2963,0.279,0.2357,0.2353,0.235,0.2346,0,0,0.2523,0.2476,0.2477,0.2427,0.2491,0.247,0.2508,0.2537,0.2615,0.2595,0.2647,0.2871,0.3047,0.2647,0.2621,0.2472,0.2659,0.2379,0.3258,0.3258,0.3307,0.346,0.3269,0,0,0,0,0]},{"header":{"parameterUnit":"m.s-1","parameterCategory":2,"la1":30.2991,"la2":30.254,"lo1":-89.0895,"lo2":-89.0444,"dy":0.0017,"dx":0.0017,"nx":28,"ny":28,"refTime":"2025-05-26T03:00:00:Z","depth":"2","parameterNumber":3,"parameterNumberName":"V-component_of_CURRENTS"},"data":[0,0,0,0,0,0,0,0,0,0,0,0,0,0,0,0,0,0,0,0,0,0,0,0,0,0,0,0,0,0,0,0,0,0,0,0,0,0,0,0,0,0,0,0,0,0,0,0,0,0,0,0,0,0,0,0,0,0,-0.0106,-0.0106,0,-0.016,-0.016,-0.0161,-0.0197,-0.0198,-0.0198,-0.0198,-0.0247,-0.0247,-0.0248,0,0,0,0,0,0,0,0,0,0,0,0,0,-0.0062,-0.0063,-0.0106,-0.0107,-0.0107,-0.016,-0.016,-0.0161,-0.0197,-0.0198,-0.0198,-0.0198,-0.0246,-0.0247,-0.0249,0,0,0,0,0,0,0,0,0,0,0,0,0,-0.0094,-0.0063,-0.0106,-0.0132,-0.0135,-0.0159,-0.016,-0.0161,-0.0197,-0.0198,-0.0198,-0.0198,-0.0246,-0.0247,-0.0249,-0.0249,0,0,-0.0253,-0.0254,0,0,0,0,0,0,0,0,-0.0093,-0.0096,-0.0127,-0.013,-0.0134,-0.0173,-0.0163,-0.019,-0.0197,-0.0173,-0.0198,-0.0199,-0.0221,-0.0225,-0.0233,-0.0251,-0.0253,-0.0253,-0.0254,-0.0255,-0.0255,0,0,0,0,0,0,0,-0.009,-0.0094,-0.0127,-0.0128,-0.0132,-0.0151,-0.0155,-0.0168,-0.0193,-0.0175,-0.0178,-0.0185,-0.0223,-0.0232,-0.0235,-0.0254,-0.0253,-0.0255,-0.0256,-0.0256,-0.0276,-0.0276,0,0,0,0,0,0,-0.0083,-0.0092,-0.0125,-0.0128,-0.0114,-0.0151,-0.0156,-0.0159,-0.0194,-0.0199,-0.0184,-0.0186,-0.0229,-0.0233,-0.0237,-0.0222,-0.0255,-0.0256,-0.0257,-0.0277,-0.0276,-0.0276,0,0,0,0,0,0,-0.0081,-0.0085,-0.0123,-0.0112,-0.0118,-0.0151,-0.0154,-0.016,-0.017,-0.0201,-0.0206,-0.0188,-0.023,-0.0234,-0.0241,-0.0225,-0.0257,-0.0259,-0.0277,-0.0277,-0.0276,-0.0204,0,0,0,0,0,0,-0.008,-0.0084,-0.0081,-0.0111,-0.0118,-0.0127,-0.0154,-0.0161,-0.0173,-0.0176,-0.0206,-0.0211,-0.023,-0.0238,-0.0242,-0.0228,-0.026,-0.0278,-0.0277,-0.0276,-0.0207,-0.0201,-0.0196,0,0,0,0,0,-0.0078,-0.0064,-0.008,-0.0084,-0.0113,-0.0126,-0.0131,-0.0156,-0.0173,-0.0168,-0.0189,-0.021,-0.0237,-0.0239,-0.0243,-0.0229,-0.0278,-0.0277,-0.0276,-0.0209,-0.0202,-0.0196,0,0,0,0,0,0,-0.0039,-0.0068,-0.0085,-0.0081,-0.01,-0.0132,-0.013,-0.0152,-0.0167,-0.0169,-0.0202,-0.0207,-0.021,-0.023,-0.0232,-0.0235,-0.0262,-0.0262,-0.0209,-0.0203,-0.0198,-0.0172,-0.0261,0,0,0,0,0,-0.003,-0.0031,-0.0062,-0.0058,-0.0065,-0.0099,-0.0108,-0.0125,-0.0145,-0.0152,-0.0176,-0.0198,-0.021,-0.0214,-0.0232,-0.0228,-0.0252,-0.0225,-0.0219,-0.0215,-0.0198,-0.0213,-0.0207,-0.0273,-0.0273,-0.0273,0,0,-0.0016,-0.0031,-0.0032,-0.0051,-0.0068,-0.0062,-0.0104,-0.0111,-0.0104,-0.0154,-0.015,-0.018,-0.0206,-0.0204,-0.0207,-0.0218,-0.0214,-0.0213,-0.0209,-0.0195,-0.0211,-0.0204,-0.0199,-0.0272,-0.0273,-0.0273,0,0,0.0024,0.0001,0.0018,0.0007,-0.0013,-0.0034,-0.0033,-0.0064,-0.0074,-0.0079,-0.0112,-0.0128,-0.0152,-0.0163,-0.0173,-0.0148,-0.0187,-0.016,-0.0106,-0.012,-0.0115,-0.011,-0.0151,-0.015,-0.0154,-0.0154,-0.0153,0,0.0044,0.0058,0.0022,0.0038,0.004,-0.0016,0.001,-0.0009,-0.0038,-0.0034,-0.0067,-0.0096,-0.0129,-0.0114,-0.0111,-0.0133,-0.0157,-0.0126,-0.0111,-0.0107,-0.0103,-0.0147,-0.0147,-0.015,-0.015,-0.0151,-0.0151,0,0.0096,0.0107,0.0117,0.0118,0.0118,0.0126,0.0099,0.009,0.0062,0.0045,0.0042,-0.0007,-0.0019,-0.0041,-0.007,-0.0055,-0.0088,-0.0105,-0.0123,-0.0092,-0.0141,-0.0142,-0.0145,-0.0146,-0.0147,-0.0148,0,0,0.0146,0.0153,0.0158,0.018,0.0162,0.0174,0.018,0.0183,0.0201,0.0154,0.0183,0.0133,0.01,0.0087,0.0042,0.0021,0.0007,-0.0026,-0.0028,-0.0058,-0.0042,-0.01,-0.0108,-0.0004,-0.0004,-0.0003,-0.0094,0,0.0199,0.0253,0.0239,0.0295,0.0323,0.0285,0.0303,0.0297,0.0275,0.0285,0.023,0.0238,0.0152,0.0154,0.0115,0.0047,0.001,0.0032,-0.0075,-0.0079,-0.0125,-0.0108,-0.0078,-0.0158,-0.0095,-0.0096,-0.0096,0,0.0256,0.029,0.0353,0.0395,0.0405,0.0425,0.0453,0.0468,0.0455,0.0442,0.0423,0.0379,0.0347,0.0269,0.0157,0.0176,0.0073,0.0002,-0.0003,-0.0077,-0.0137,-0.0177,-0.0164,-0.0099,-0.0099,-0.0098,-0.0098,0,0.032,0.0371,0.0428,0.044,0.0472,0.0498,0.0518,0.0519,0.0559,0.0557,0.0574,0.0514,0.0508,0.0377,0.0205,0.0193,0.0069,0.0035,-0.0121,-0.0128,-0.0133,-0.0141,-0.0048,-0.0048,-0.0047,-0.0047,-0.0047,0,0.0378,0.0425,0.0463,0.0498,0.0578,0.058,0.0657,0.0659,0.0694,0.0762,0.0671,0.0697,0.0539,0.0439,0.0257,0.0061,0.0104,-0.0107,-0.0146,-0.0112,-0.0116,-0.0084,-0.0087,-0.0051,-0.005,-0.0049,-0.0048,0,0.0422,0.0443,0.0521,0.0582,0.0609,0.067,0.0758,0.0813,0.0826,0.091,0.0925,0.0865,0.0742,0.0534,0.0339,0.0148,-0.0046,-0.0134,-0.0101,-0.0135,-0.0251,-0.0249,-0.03,-0.0303,-0.0305,-0.0307,-0.0308,0,0.0439,0.0481,0.059,0.064,0.0665,0.0755,0.0817,0.0876,0.096,0.1007,0.1069,0.0984,0.0927,0.0588,0.0276,-0.0043,-0.0073,-0.0243,-0.0264,-0.0239,-0.0272,-0.0267,-0.0262,-0.0254,-0.0255,-0.0256,-0.0257,0,0.0473,0.0511,0.0575,0.0692,0.0771,0.0887,0.0999,0.1102,0.1184,0.1249,0.132,0.1275,0.0953,0.0661,0.0215,-0.0009,-0.019,-0.0271,-0.0227,-0.0198,-0.0204,-0.0234,-0.0229,-0.0264,-0.0263,-0.0263,-0.0262,-0.0262,0.0486,0.0539,0.0628,0.0745,0.0844,0.1016,0.1142,0.1276,0.1439,0.1566,0.1503,0.1442,0.107,0.0528,0.0136,-0.0252,-0.0239,-0.0378,-0.0372,-0.0366,-0.0347,-0.0356,-0.0443,-0.0444,-0.0444,-0.0444,-0.0444,0,0.0519,0.0581,0.0676,0.0833,0.0963,0.1028,0.1255,0.1383,0.1598,0.1689,0.1726,0.1365,0.1001,0.0592,0.001,-0.037,-0.0381,-0.0477,-0.0397,-0.0389,-0.0381,-0.036,-0.0462,-0.0463,-0.0464,-0.0465,0,0,0.053,0.0624,0.0694,0.0913,0.1032,0.1235,0.139,0.1586,0.1712,0.1798,0.1788,0.1658,0.1146,0.0723,0.0214,-0.0105,-0.0157,-0.0177,-0.0127,0.0035,0.0047,-0.0297,-0.0252,0,0,0,0,0]}],[{"header":{"parameterUnit":"m.s-1","parameterCategory":2,"la1":30.2991,"la2":30.254,"lo1":-89.0895,"lo2":-89.0444,"dy":0.0017,"dx":0.0017,"nx":28,"ny":28,"refTime":"2025-05-26T03:00:00:Z","depth":"4","parameterNumber":2,"parameterNumberName":"U-component_of_CURRENTS"},"data":[0,0,0,0,0,0,0,0,0,0,0,0,0,0,0,0,0,0,0,0,0,0,0,0,0,0,0,0,0,0,0,0,0,0,0,0,0,0,0,0,0,0,0,0,0,0,0,0,0,0,0,0,0,0,0,0,0,0,0.1609,0.161,0,0.1704,0.1705,0.1706,0.1756,0.1756,0.1756,0.1756,0.1848,0.185,0.1852,0,0,0,0,0,0,0,0,0,0,0,0,0,0.1521,0.1522,0.1609,0.161,0.1612,0.1704,0.1705,0.1707,0.1756,0.1756,0.1756,0.1756,0.1847,0.185,0.1853,0,0,0,0,0,0,0,0,0,0,0,0,0,0.1582,0.1523,0.1609,0.1647,0.1651,0.1704,0.1705,0.1707,0.1756,0.1756,0.1756,0.1756,0.1846,0.185,0.1853,0.1875,0,0,0.1864,0.1866,0,0,0,0,0,0,0,0,0.1579,0.1586,0.164,0.1644,0.1649,0.1718,0.1708,0.1763,0.1756,0.1716,0.1756,0.1756,0.1804,0.1811,0.1829,0.1879,0.1883,0.1865,0.1867,0.1868,0.1869,0,0,0,0,0,0,0,0.1574,0.1582,0.1647,0.1641,0.1647,0.1677,0.1685,0.1719,0.1759,0.172,0.1724,0.1734,0.1806,0.1826,0.1832,0.1884,0.1864,0.1868,0.187,0.1871,0.2011,0.2012,0,0,0,0,0,0,0.156,0.1578,0.1644,0.165,0.1613,0.1678,0.1687,0.1696,0.1759,0.1768,0.1733,0.1735,0.1819,0.1827,0.1835,0.195,0.1868,0.1872,0.1874,0.2009,0.2011,0.2013,0,0,0,0,0,0,0.1557,0.1564,0.164,0.1616,0.1628,0.1679,0.1689,0.1698,0.1754,0.1769,0.1779,0.1783,0.182,0.183,0.1897,0.1951,0.1873,0.1877,0.2007,0.201,0.2012,0.2125,0,0,0,0,0,0,0.1554,0.1563,0.1585,0.1615,0.1628,0.1693,0.1689,0.17,0.1757,0.1762,0.1815,0.1821,0.1821,0.1892,0.1901,0.1954,0.1879,0.2005,0.2008,0.2011,0.2119,0.2131,0.2141,0,0,0,0,0,0.1551,0.1572,0.1586,0.1595,0.165,0.1694,0.1705,0.1741,0.176,0.1792,0.1829,0.1821,0.1915,0.1897,0.1907,0.1962,0.2004,0.2007,0.2011,0.2115,0.2129,0.2141,0,0,0,0,0,0,0.155,0.158,0.1595,0.1627,0.1669,0.1703,0.174,0.1767,0.1824,0.1836,0.1853,0.1863,0.1936,0.1931,0.191,0.2006,0.1954,0.196,0.203,0.2043,0.2053,0.2063,0.1882,0,0,0,0,0,0.1558,0.1583,0.1617,0.165,0.1671,0.1716,0.1748,0.1772,0.1815,0.1842,0.1882,0.1916,0.1953,0.1984,0.2008,0.2074,0.2075,0.2109,0.212,0.213,0.2141,0.2197,0.2215,0.2024,0.2024,0.2024,0,0,0.1565,0.1589,0.1604,0.1653,0.1689,0.1731,0.1737,0.1792,0.184,0.1842,0.1934,0.196,0.1977,0.2045,0.2077,0.2054,0.2183,0.2134,0.2142,0.2149,0.2203,0.2222,0.2238,0.2026,0.2026,0.2025,0,0,0.1588,0.1618,0.1646,0.1685,0.1743,0.1767,0.1792,0.1851,0.1895,0.1976,0.1986,0.2052,0.2114,0.2141,0.2159,0.2244,0.2234,0.2248,0.2323,0.2378,0.2395,0.2409,0.2432,0.2447,0.2258,0.2258,0.2259,0,0.1601,0.1638,0.1666,0.1708,0.1746,0.1788,0.1833,0.1883,0.1962,0.2012,0.2017,0.214,0.216,0.2245,0.2276,0.2274,0.2289,0.2278,0.2395,0.2409,0.2423,0.2442,0.2458,0.2264,0.2264,0.2263,0.2262,0,0.1639,0.1683,0.1708,0.1769,0.1814,0.1863,0.192,0.1984,0.2044,0.21,0.2215,0.2255,0.2329,0.2346,0.2345,0.245,0.2425,0.2401,0.2368,0.2449,0.2463,0.2478,0.2273,0.2271,0.2269,0.2267,0,0,0.1633,0.1716,0.1732,0.1765,0.1852,0.1884,0.1974,0.2065,0.2137,0.2232,0.2334,0.2422,0.2464,0.2485,0.2499,0.2553,0.2663,0.253,0.253,0.2561,0.2774,0.2601,0.2599,0.267,0.2673,0.2676,0.2746,0,0.1662,0.1732,0.1779,0.1856,0.189,0.1961,0.2042,0.2133,0.2219,0.2327,0.2408,0.2508,0.251,0.2562,0.2624,0.2653,0.2708,0.2645,0.2682,0.2682,0.2527,0.2613,0.2686,0.2756,0.276,0.2762,0.2764,0,0.1683,0.1727,0.1799,0.189,0.1918,0.1982,0.2108,0.2187,0.2339,0.2409,0.2531,0.2597,0.2719,0.2691,0.2814,0.2779,0.2795,0.2805,0.2808,0.2617,0.2536,0.2657,0.279,0.2788,0.2786,0.2784,0.2782,0,0.1635,0.174,0.1794,0.1828,0.1939,0.2007,0.2087,0.223,0.2305,0.2477,0.2549,0.2697,0.2772,0.2844,0.289,0.2873,0.2988,0.2957,0.2813,0.28,0.2885,0.2868,0.3039,0.3039,0.3039,0.3038,0.3038,0,0.1615,0.1661,0.1785,0.1807,0.1886,0.1996,0.2104,0.2198,0.2356,0.2451,0.2598,0.2678,0.2819,0.2901,0.293,0.2914,0.3028,0.2842,0.2817,0.2927,0.2915,0.2895,0.2877,0.3041,0.304,0.304,0.304,0,0.1523,0.1609,0.1664,0.1804,0.1854,0.1912,0.2079,0.2151,0.2321,0.2444,0.2509,0.2692,0.2803,0.2898,0.3001,0.2933,0.2951,0.2909,0.302,0.2997,0.2717,0.2705,0.2769,0.2764,0.2759,0.2755,0.2752,0,0.1462,0.1489,0.163,0.166,0.1724,0.1838,0.191,0.2099,0.2178,0.2431,0.247,0.2651,0.2754,0.2755,0.2867,0.2906,0.2873,0.285,0.2792,0.2726,0.2696,0.269,0.2684,0.2745,0.2744,0.2743,0.2742,0,0.1332,0.1409,0.1453,0.1529,0.1604,0.168,0.1816,0.186,0.209,0.2261,0.2386,0.2476,0.2579,0.2661,0.2694,0.2721,0.2854,0.2802,0.2811,0.2757,0.2698,0.2671,0.267,0.2726,0.2728,0.273,0.2731,0,0.1229,0.1236,0.1318,0.1374,0.1451,0.1509,0.1603,0.1725,0.1836,0.2137,0.2175,0.2379,0.2555,0.2565,0.261,0.2613,0.2584,0.2497,0.2522,0.254,0.2434,0.2323,0.2231,0,0,0,0,0,0.1128,0.1134,0.1158,0.1216,0.1291,0.1361,0.1525,0.1639,0.1874,0.1905,0.2045,0.215,0.2255,0.2356,0.2315,0.2499,0.2573,0.244,0.248,0.264,0.2658,0.2554,0,0,0,0,0,0,0.1059,0.1075,0.1102,0.1073,0.1102,0.1184,0.1293,0.1462,0.1503,0.1752,0.1815,0.2011,0.2129,0.2249,0.2269,0.2299,0.228,0.2572,0.2567,0.263,0.2646,0.266,0.256,0,0,0,0,0]},{"header":{"parameterUnit":"m.s-1","parameterCategory":2,"la1":30.2991,"la2":30.254,"lo1":-89.0895,"lo2":-89.0444,"dy":0.0017,"dx":0.0017,"nx":28,"ny":28,"refTime":"2025-05-26T03:00:00:Z","depth":"4","parameterNumber":3,"parameterNumberName":"V-component_of_CURRENTS"},"data":[0,0,0,0,0,0,0,0,0,0,0,0,0,0,0,0,0,0,0,0,0,0,0,0,0,0,0,0,0,0,0,0,0,0,0,0,0,0,0,0,0,0,0,0,0,0,0,0,0,0,0,0,0,0,0,0,0,0,0.0006,0.0006,0,-0.0039,-0.004,-0.004,-0.0065,-0.0065,-0.0065,-0.0065,-0.0112,-0.0113,-0.0115,0,0,0,0,0,0,0,0,0,0,0,0,0,0.0033,0.0033,0.0006,0.0006,0.0005,-0.0039,-0.004,-0.004,-0.0065,-0.0065,-0.0065,-0.0065,-0.0112,-0.0113,-0.0115,0,0,0,0,0,0,0,0,0,0,0,0,0,0.0008,0.0033,0.0006,-0.0012,-0.0014,-0.0039,-0.004,-0.0041,-0.0065,-0.0065,-0.0065,-0.0065,-0.0111,-0.0113,-0.0115,-0.0125,0,0,-0.012,-0.0121,0,0,0,0,0,0,0,0,0.0009,0.0007,-0.0009,-0.0011,-0.0013,-0.0046,-0.0048,-0.0069,-0.0065,-0.0046,-0.0065,-0.0065,-0.009,-0.0094,-0.0102,-0.0128,-0.013,-0.0121,-0.0122,-0.0123,-0.0123,0,0,0,0,0,0,0,0.0011,0.0008,-0.0012,-0.001,-0.0012,-0.0032,-0.0035,-0.0052,-0.0067,-0.0047,-0.0049,-0.0054,-0.0091,-0.01,-0.0104,-0.013,-0.0121,-0.0122,-0.0123,-0.0124,-0.0165,-0.0165,0,0,0,0,0,0,0.0019,0.001,-0.0011,-0.0013,-0.0002,-0.0032,-0.0035,-0.0036,-0.0067,-0.0072,-0.0054,-0.0055,-0.0097,-0.0101,-0.0105,-0.0114,-0.0123,-0.0124,-0.0125,-0.0165,-0.0165,-0.0165,0,0,0,0,0,0,0.002,0.0018,-0.0009,-0.0003,-0.0008,-0.0032,-0.0032,-0.0037,-0.0046,-0.0072,-0.0077,-0.0059,-0.0098,-0.0103,-0.0115,-0.0117,-0.0125,-0.0127,-0.0165,-0.0165,-0.0165,-0.0136,0,0,0,0,0,0,0.0021,0.0019,0.0022,-0.0002,-0.0008,-0.0018,-0.0032,-0.0037,-0.0049,-0.0051,-0.0078,-0.0083,-0.0098,-0.0112,-0.0116,-0.0119,-0.0128,-0.0165,-0.0165,-0.0165,-0.0137,-0.0135,-0.0133,0,0,0,0,0,0.0022,0.0029,0.0022,0.002,-0.0002,-0.0017,-0.0022,-0.004,-0.0049,-0.005,-0.0066,-0.0082,-0.0115,-0.0113,-0.0119,-0.0122,-0.0165,-0.0165,-0.0165,-0.0138,-0.0135,-0.0133,0,0,0,0,0,0,0.0042,0.0026,0.0019,0.002,0.0005,-0.0021,-0.0023,-0.0039,-0.0054,-0.0054,-0.008,-0.0085,-0.0099,-0.0113,-0.011,-0.0134,-0.0144,-0.0145,-0.0121,-0.0119,-0.0117,-0.0107,-0.013,0,0,0,0,0,0.0049,0.0049,0.0029,0.003,0.0024,-0.0,-0.0009,-0.002,-0.0038,-0.0045,-0.0065,-0.0085,-0.0103,-0.0112,-0.013,-0.014,-0.0169,-0.0147,-0.0145,-0.0144,-0.014,-0.0183,-0.0184,-0.0165,-0.0165,-0.0165,0,0,0.0056,0.0048,0.0048,0.0034,0.0021,0.0018,-0.0005,-0.0013,-0.0018,-0.0047,-0.0058,-0.008,-0.0105,-0.0117,-0.0125,-0.0129,-0.0166,-0.0144,-0.0142,-0.0139,-0.0183,-0.0185,-0.0187,-0.0165,-0.0165,-0.0165,0,0,0.0074,0.0066,0.0072,0.0063,0.0048,0.0034,0.0032,0.0008,-0.0004,-0.0017,-0.0041,-0.0062,-0.0087,-0.0108,-0.0121,-0.012,-0.0156,-0.0126,-0.0108,-0.015,-0.0152,-0.0154,-0.0201,-0.0208,-0.0124,-0.0124,-0.0124,0,0.0082,0.009,0.0071,0.0075,0.0073,0.0043,0.0051,0.0031,0.0005,-0.0001,-0.0014,-0.0059,-0.0084,-0.0103,-0.0103,-0.0116,-0.0146,-0.0114,-0.0147,-0.015,-0.0153,-0.0201,-0.0209,-0.0122,-0.0122,-0.0123,-0.0123,0,0.0102,0.0109,0.0113,0.0109,0.0105,0.0106,0.0082,0.0071,0.0052,0.0033,0.0008,-0.003,-0.0054,-0.0071,-0.0087,-0.0115,-0.0134,-0.0142,-0.0152,-0.0153,-0.0204,-0.0212,-0.012,-0.0121,-0.0121,-0.0121,0,0,0.012,0.0126,0.0128,0.0143,0.0126,0.0131,0.0119,0.0106,0.0108,0.0066,0.0059,0.0012,-0.0011,-0.0028,-0.006,-0.0099,-0.0151,-0.0124,-0.0126,-0.0169,-0.025,-0.0238,-0.0246,-0.0164,-0.0165,-0.0166,-0.0281,0,0.0142,0.0168,0.016,0.0188,0.0202,0.0178,0.0179,0.0163,0.0138,0.0122,0.0066,0.0051,0.0005,-0.0001,-0.0052,-0.0121,-0.017,-0.0119,-0.0244,-0.0248,-0.0235,-0.0254,-0.017,-0.0288,-0.029,-0.0291,-0.0292,0,0.0162,0.0183,0.0214,0.0245,0.025,0.0259,0.0265,0.0262,0.0224,0.0204,0.0161,0.012,0.0055,0.0021,-0.0115,-0.008,-0.0161,-0.0224,-0.023,-0.0232,-0.0251,-0.0286,-0.0308,-0.0307,-0.0306,-0.0305,-0.0304,0,0.0193,0.0222,0.0256,0.0262,0.0284,0.0297,0.0308,0.0289,0.0303,0.0256,0.026,0.0165,0.0132,0.0012,-0.012,-0.0119,-0.0273,-0.0288,-0.036,-0.0361,-0.035,-0.0347,-0.0387,-0.0387,-0.0387,-0.0386,-0.0386,0,0.0217,0.0247,0.0278,0.0299,0.0355,0.035,0.0395,0.0383,0.0379,0.0407,0.0314,0.0305,0.013,0.0026,-0.0108,-0.0259,-0.027,-0.0362,-0.0388,-0.0337,-0.033,-0.0357,-0.0352,-0.0391,-0.039,-0.0389,-0.0388,0,0.0238,0.0253,0.0306,0.035,0.0371,0.0412,0.0469,0.0499,0.0484,0.0513,0.0507,0.0404,0.0262,0.0082,-0.012,-0.0227,-0.0381,-0.0431,-0.0368,-0.0388,-0.0449,-0.0441,-0.0531,-0.0531,-0.0531,-0.0532,-0.0532,0,0.0249,0.0277,0.0352,0.0398,0.0421,0.0483,0.0531,0.0546,0.0586,0.0579,0.0601,0.0477,0.0387,0.0112,-0.0094,-0.0364,-0.0395,-0.0482,-0.0468,-0.0447,-0.0464,-0.0455,-0.0447,-0.0533,-0.0533,-0.0533,-0.0533,0,0.0279,0.0305,0.0352,0.0451,0.0517,0.0593,0.0663,0.0702,0.0727,0.0715,0.0688,0.054,0.0376,0.0134,-0.0078,-0.0269,-0.0431,-0.0487,-0.0487,-0.0475,-0.0451,-0.0465,-0.0457,-0.0535,-0.0534,-0.0534,-0.0534,0,0.0307,0.0346,0.0417,0.0505,0.0594,0.0683,0.0714,0.0765,0.0801,0.0795,0.0779,0.0594,0.0474,0.0183,-0.0009,-0.0202,-0.0252,-0.0309,-0.0319,-0.032,-0.0225,-0.0162,-0.0181,0,0,0,0,0,0.0333,0.0383,0.0468,0.0571,0.0661,0.0717,0.0799,0.0822,0.0847,0.0847,0.082,0.0669,0.0381,0.0246,0.0057,-0.0036,-0.03,-0.0265,-0.0373,-0.0543,-0.0541,-0.0464,0,0,0,0,0,0,0.0351,0.0426,0.0471,0.0611,0.0689,0.0795,0.085,0.0867,0.0868,0.0857,0.0706,0.0628,0.034,0.0493,0.0056,-0.0005,-0.0098,-0.0406,-0.041,-0.0543,-0.0542,-0.0541,-0.0461,0,0,0,0,0]}]]